AFR610 TNCM-LFPG

Flight info

Callsign AFR610
Flight time N/A
Altitude 33000
Route MODOR2 MNOLO M576 OBIKE/M084F330 M576 RKDIA DCT 27N055W/M084F350 32N050W 39N040W 4130N03000W 43N020W/M084F370 DCT PASAS DCT SIVIR/M084F380 UN460 RIVAK/N0479F380 DCT NOVAN DCT AZFIC UN741 MOKOR/N0490F340 UN741 NTS/N0502F300 UN741 KEPER
Aircraft B77W/H-SDE1E2E3FGHIJ2J3J4J5M1RWXY/LB1D1

Departure

Time 2026-05-01 12:18
Airport Princess Juliana International Airport (TNCM)

Arrival

Time N/A
Airport Charles de Gaulle International Airport (LFPG)
Time Latitude Longitude Altitude Speed Heading
2026-05-01 11:32 18.04327 -63.11292 27 ft 0 kts 352°
2026-05-01 12:09 18.04319 -63.11291 26 ft 4 kts 348°
2026-05-01 12:09 18.04295 -63.11281 28 ft 4 kts 314°
2026-05-01 12:09 18.04285 -63.11259 31 ft 4 kts 263°
2026-05-01 12:10 18.04293 -63.11232 29 ft 4 kts 241°
2026-05-01 12:10 18.04295 -63.11228 29 ft 0 kts 240°
2026-05-01 12:13 18.04294 -63.11230 29 ft 1 kts 241°
2026-05-01 12:13 18.04290 -63.11239 27 ft 2 kts 243°
2026-05-01 12:13 18.04278 -63.11263 29 ft 6 kts 241°
2026-05-01 12:14 18.04259 -63.11298 32 ft 11 kts 241°
2026-05-01 12:14 18.04227 -63.11446 30 ft 18 kts 257°
2026-05-01 12:14 18.04160 -63.11558 30 ft 18 kts 225°
2026-05-01 12:14 18.04080 -63.11662 27 ft 18 kts 235°
2026-05-01 12:15 18.04049 -63.11792 28 ft 18 kts 261°
2026-05-01 12:15 18.04040 -63.11851 30 ft 0 kts 259°
2026-05-01 12:15 18.04033 -63.11879 28 ft 7 kts 253°
2026-05-01 12:16 18.04001 -63.11941 29 ft 12 kts 229°
2026-05-01 12:16 18.03942 -63.11927 27 ft 3 kts 98°
2026-05-01 12:16 18.03942 -63.11922 27 ft 1 kts 90°
2026-05-01 12:16 18.03945 -63.11910 27 ft 4 kts 76°
2026-05-01 12:17 18.03954 -63.11867 27 ft 0 kts 81°
2026-05-01 12:17 18.03970 -63.11756 26 ft 57 kts 81°
2026-05-01 12:17 18.04079 -63.10982 27 ft 155 kts 82°
2026-05-01 12:18 18.04279 -63.09569 228 ft 222 kts 82°
2026-05-01 12:18 18.04440 -63.07915 1287 ft 232 kts 94°
2026-05-01 12:18 18.03945 -63.06281 2398 ft 240 kts 123°
2026-05-01 12:18 18.02696 -63.05174 3303 ft 239 kts 156°
2026-05-01 12:19 18.01035 -63.05000 3970 ft 249 kts 190°
2026-05-01 12:19 17.99369 -63.05473 4719 ft 248 kts 194°
2026-05-01 12:19 17.97695 -63.05929 5486 ft 248 kts 191°
2026-05-01 12:19 17.96005 -63.06363 6182 ft 252 kts 192°
2026-05-01 12:20 17.94299 -63.06830 6874 ft 254 kts 193°
2026-05-01 12:20 17.92605 -63.07312 7513 ft 258 kts 193°
2026-05-01 12:20 17.90830 -63.07753 8038 ft 267 kts 190°
2026-05-01 12:20 17.88950 -63.08083 8507 ft 280 kts 185°
2026-05-01 12:21 17.86968 -63.08183 9076 ft 289 kts 178°
2026-05-01 12:21 17.84985 -63.07821 9673 ft 294 kts 158°
2026-05-01 12:21 17.83219 -63.06705 10264 ft 301 kts 137°
2026-05-01 12:21 17.82042 -63.04900 10810 ft 306 kts 106°
2026-05-01 12:22 17.81890 -63.02665 11297 ft 315 kts 76°
2026-05-01 12:22 17.82813 -63.00568 11737 ft 324 kts 49°
2026-05-01 12:22 17.84524 -62.99027 12245 ft 328 kts 28°
2026-05-01 12:22 17.86555 -62.97952 12937 ft 327 kts 23°
2026-05-01 12:23 17.88677 -62.96995 13410 ft 339 kts 18°
2026-05-01 12:23 17.90946 -62.96184 13770 ft 353 kts 16°
2026-05-01 12:23 17.93346 -62.95374 14001 ft 371 kts 15°
2026-05-01 12:23 17.95872 -62.94556 14258 ft 388 kts 15°
2026-05-01 12:24 17.98476 -62.93661 14640 ft 400 kts 17°
2026-05-01 12:24 18.01140 -62.92684 15047 ft 411 kts 18°
2026-05-01 12:24 18.03844 -62.91624 15551 ft 418 kts 18°
2026-05-01 12:24 18.06585 -62.90535 16153 ft 422 kts 18°
2026-05-01 12:25 18.09333 -62.89471 16796 ft 425 kts 17°
2026-05-01 12:25 18.14912 -62.87391 18030 ft 432 kts 15°
2026-05-01 12:25 18.17764 -62.86349 18590 ft 436 kts 15°
2026-05-01 12:26 18.20645 -62.85300 19087 ft 440 kts 15°
2026-05-01 12:26 18.26485 -62.83170 20095 ft 448 kts 15°
2026-05-01 12:26 18.29447 -62.82087 20578 ft 453 kts 15°
2026-05-01 12:27 18.32437 -62.80993 21001 ft 456 kts 16°
2026-05-01 12:27 18.37789 -62.77275 21752 ft 474 kts 43°
2026-05-01 12:28 18.42438 -62.72255 22628 ft 483 kts 43°
2026-05-01 12:28 18.44806 -62.69739 23102 ft 485 kts 42°
2026-05-01 12:28 18.49638 -62.64696 23951 ft 492 kts 41°
2026-05-01 12:29 18.52090 -62.62162 24332 ft 495 kts 41°
2026-05-01 12:29 18.54555 -62.59620 24731 ft 497 kts 41°
2026-05-01 12:29 18.59527 -62.54490 25503 ft 503 kts 41°
2026-05-01 12:30 18.64546 -62.49302 26255 ft 508 kts 41°
2026-05-01 12:30 18.67072 -62.46687 26654 ft 510 kts 41°
2026-05-01 12:30 18.69609 -62.44060 27025 ft 512 kts 41°
2026-05-01 12:31 18.72161 -62.41416 27368 ft 515 kts 41°
2026-05-01 12:31 18.74726 -62.38758 27720 ft 518 kts 41°
2026-05-01 12:31 18.77270 -62.36119 28053 ft 521 kts 41°
2026-05-01 12:31 18.79861 -62.33431 28388 ft 523 kts 41°
2026-05-01 12:32 18.82464 -62.30729 28695 ft 525 kts 41°
2026-05-01 12:32 18.87705 -62.25284 29310 ft 530 kts 41°
2026-05-01 12:32 18.90335 -62.22551 29603 ft 532 kts 41°
2026-05-01 12:33 18.92975 -62.19804 29878 ft 534 kts 41°
2026-05-01 12:33 18.95631 -62.17040 30193 ft 535 kts 41°
2026-05-01 12:33 18.98281 -62.14281 30497 ft 535 kts 41°
2026-05-01 12:33 19.00927 -62.11519 30790 ft 535 kts 41°
2026-05-01 12:34 19.03578 -62.08746 31052 ft 536 kts 40°
2026-05-01 12:34 19.06195 -62.06005 31314 ft 537 kts 40°
2026-05-01 12:34 19.08851 -62.03221 31581 ft 538 kts 40°
2026-05-01 12:34 19.11509 -62.00434 31868 ft 539 kts 40°
2026-05-01 12:35 19.14170 -61.97644 32141 ft 539 kts 40°
2026-05-01 12:35 19.16835 -61.94848 32407 ft 540 kts 40°
2026-05-01 12:35 19.19501 -61.92050 32672 ft 540 kts 40°
2026-05-01 12:35 19.22169 -61.89248 32918 ft 541 kts 40°
2026-05-01 12:36 19.27545 -61.83602 33038 ft 547 kts 40°
2026-05-01 12:36 19.32979 -61.77885 33052 ft 553 kts 40°
2026-05-01 12:37 19.38468 -61.72119 33048 ft 558 kts 40°
2026-05-01 12:37 19.44013 -61.66305 33047 ft 562 kts 40°
2026-05-01 12:38 19.49586 -61.60452 33046 ft 565 kts 40°
2026-05-01 12:38 19.55177 -61.54570 33044 ft 567 kts 40°
2026-05-01 12:39 19.60784 -61.48664 33045 ft 569 kts 40°
2026-05-01 12:39 19.66400 -61.42742 33060 ft 569 kts 40°
2026-05-01 12:40 19.72015 -61.36816 33045 ft 569 kts 40°
2026-05-01 12:40 19.77580 -61.30937 33044 ft 567 kts 40°
2026-05-01 12:41 19.83157 -61.25039 33041 ft 565 kts 40°
2026-05-01 12:41 19.88711 -61.19159 33044 ft 563 kts 40°
2026-05-01 12:42 19.94248 -61.13292 33049 ft 561 kts 41°
2026-05-01 12:42 19.99763 -61.07440 33041 ft 559 kts 41°
2026-05-01 12:43 20.05255 -61.01608 33046 ft 557 kts 41°
2026-05-01 12:43 20.10732 -60.95786 33051 ft 556 kts 41°
2026-05-01 12:44 20.16208 -60.89960 33072 ft 556 kts 41°
2026-05-01 12:45 20.27080 -60.78371 33049 ft 554 kts 41°
2026-05-01 12:45 20.32516 -60.72567 33043 ft 553 kts 41°
2026-05-01 12:46 20.37947 -60.66764 33051 ft 553 kts 41°
2026-05-01 12:46 20.43379 -60.60954 33067 ft 553 kts 41°
2026-05-01 12:47 20.48810 -60.55137 33053 ft 553 kts 41°
2026-05-01 12:47 20.54235 -60.49321 33054 ft 553 kts 41°
2026-05-01 12:48 20.59659 -60.43499 33057 ft 553 kts 41°
2026-05-01 12:48 20.65081 -60.37674 33075 ft 553 kts 41°
2026-05-01 12:49 20.70498 -60.31848 33065 ft 553 kts 41°
2026-05-01 12:49 20.75914 -60.26016 33059 ft 553 kts 41°
2026-05-01 12:50 20.81332 -60.20176 33060 ft 553 kts 41°
2026-05-01 12:50 20.86741 -60.14338 33057 ft 552 kts 41°
2026-05-01 12:51 20.92144 -60.08501 33069 ft 552 kts 41°
2026-05-01 12:52 21.00267 -59.99854 33056 ft 549 kts 38°
2026-05-01 12:52 21.09360 -59.92521 33055 ft 544 kts 31°
2026-05-01 12:53 21.18559 -59.85387 33069 ft 545 kts 32°
2026-05-01 12:54 21.24666 -59.80577 33066 ft 545 kts 32°
2026-05-01 12:54 21.33812 -59.73335 33067 ft 544 kts 32°
2026-05-01 12:55 21.42950 -59.66095 33079 ft 544 kts 32°
2026-05-01 12:56 21.49033 -59.61273 33069 ft 543 kts 32°
2026-05-01 12:56 21.55111 -59.56448 33065 ft 543 kts 32°
2026-05-01 12:57 21.61198 -59.51613 33236 ft 545 kts 32°
2026-05-01 12:57 21.67247 -59.46800 33611 ft 544 kts 32°
2026-05-01 12:57 21.70291 -59.44376 33779 ft 543 kts 32°
2026-05-01 12:58 21.73325 -59.41960 33972 ft 543 kts 32°
2026-05-01 12:58 21.76360 -59.39541 34168 ft 542 kts 32°
2026-05-01 12:58 21.79384 -59.37129 34382 ft 540 kts 32°
2026-05-01 12:59 21.85399 -59.32327 34822 ft 536 kts 32°
2026-05-01 12:59 21.88390 -59.29939 35027 ft 535 kts 32°
2026-05-01 12:59 21.94340 -59.25182 35066 ft 529 kts 32°
2026-05-01 13:00 22.03170 -59.18116 35074 ft 526 kts 32°
2026-05-01 13:01 22.11975 -59.11062 35093 ft 526 kts 32°
2026-05-01 13:02 22.20751 -59.04016 35079 ft 527 kts 32°
2026-05-01 13:07 22.84119 -58.52799 35099 ft 520 kts 33°
2026-05-01 13:08 22.90879 -58.47299 35071 ft 519 kts 33°
2026-05-01 13:08 22.95676 -58.43392 35088 ft 518 kts 33°
2026-05-01 13:09 23.01447 -58.38689 35081 ft 519 kts 33°
2026-05-01 13:09 23.07225 -58.33974 35100 ft 519 kts 33°
2026-05-01 13:10 23.12991 -58.29262 35082 ft 518 kts 33°
2026-05-01 13:10 23.18742 -58.24557 35082 ft 516 kts 33°
2026-05-01 13:11 23.24474 -58.19863 35076 ft 515 kts 33°
2026-05-01 13:11 23.30196 -58.15173 35093 ft 515 kts 33°
2026-05-01 13:12 23.35880 -58.10509 35086 ft 515 kts 33°
2026-05-01 13:12 23.41588 -58.05820 35082 ft 514 kts 33°
2026-05-01 13:13 23.47294 -58.01127 35080 ft 514 kts 33°
2026-05-01 13:13 23.53001 -57.96428 35098 ft 513 kts 33°
2026-05-01 13:14 23.58696 -57.91734 35082 ft 513 kts 33°
2026-05-01 13:14 23.64390 -57.87035 35079 ft 513 kts 33°
2026-05-01 13:15 23.70076 -57.82338 35075 ft 513 kts 33°
2026-05-01 13:15 23.75767 -57.77631 35089 ft 513 kts 33°
2026-05-01 13:16 23.81455 -57.72922 35076 ft 513 kts 33°
2026-05-01 13:16 23.87104 -57.68239 35076 ft 513 kts 33°
2026-05-01 13:17 23.98469 -57.58803 35080 ft 513 kts 33°
2026-05-01 13:18 24.06996 -57.51709 35076 ft 513 kts 33°
2026-05-01 13:18 24.12679 -57.46974 35076 ft 514 kts 33°
2026-05-01 13:19 24.18367 -57.42229 35076 ft 514 kts 33°
2026-05-01 13:20 24.26899 -57.35102 35078 ft 514 kts 33°
2026-05-01 13:20 24.32587 -57.30344 35076 ft 514 kts 33°
2026-05-01 13:21 24.41124 -57.23193 35076 ft 514 kts 33°
2026-05-01 13:21 24.46771 -57.18455 35079 ft 514 kts 33°
2026-05-01 13:22 24.52453 -57.13683 35073 ft 514 kts 33°
2026-05-01 13:22 24.58133 -57.08906 35073 ft 514 kts 33°
2026-05-01 13:23 24.63810 -57.04126 35074 ft 514 kts 33°
2026-05-01 13:23 24.69479 -56.99348 35074 ft 514 kts 33°
2026-05-01 13:24 24.75160 -56.94554 35073 ft 513 kts 33°
2026-05-01 13:25 24.83655 -56.87375 35073 ft 513 kts 33°
2026-05-01 13:25 24.89282 -56.82612 35082 ft 513 kts 33°
2026-05-01 13:26 24.94973 -56.77789 35069 ft 513 kts 33°
2026-05-01 13:26 25.00587 -56.73026 35071 ft 513 kts 33°
2026-05-01 13:27 25.06239 -56.68226 35071 ft 512 kts 33°
2026-05-01 13:27 25.14708 -56.61022 35072 ft 512 kts 33°
2026-05-01 13:28 25.23167 -56.53812 35067 ft 512 kts 33°
2026-05-01 13:29 25.34436 -56.44189 35069 ft 512 kts 33°
2026-05-01 13:31 25.51292 -56.29751 35078 ft 510 kts 34°
2026-05-01 13:32 25.65282 -56.17727 35063 ft 508 kts 34°
2026-05-01 13:33 25.79200 -56.05729 35056 ft 507 kts 34°
2026-05-01 13:34 25.90338 -55.96101 35065 ft 507 kts 34°
2026-05-01 13:35 25.98682 -55.88872 35057 ft 507 kts 34°
2026-05-01 13:36 26.07035 -55.81623 35057 ft 508 kts 34°
2026-05-01 13:36 26.15384 -55.74363 35055 ft 508 kts 34°
2026-05-01 13:37 26.20949 -55.69517 35053 ft 508 kts 34°
2026-05-01 13:37 26.26511 -55.64667 35055 ft 508 kts 34°
2026-05-01 13:38 26.34849 -55.57385 35060 ft 508 kts 34°
2026-05-01 13:39 26.40369 -55.52556 35058 ft 508 kts 34°
2026-05-01 13:39 26.45926 -55.47690 35052 ft 508 kts 34°
2026-05-01 13:40 26.51483 -55.42816 35053 ft 507 kts 34°
2026-05-01 13:40 26.57032 -55.37944 35056 ft 507 kts 34°
2026-05-01 13:41 26.62582 -55.33066 35051 ft 507 kts 34°
2026-05-01 13:41 26.68128 -55.28183 35046 ft 507 kts 34°
2026-05-01 13:42 26.73674 -55.23295 35047 ft 507 kts 34°
2026-05-01 13:42 26.79216 -55.18404 35050 ft 507 kts 34°
2026-05-01 13:43 26.84756 -55.13508 35048 ft 507 kts 34°
2026-05-01 13:43 26.90292 -55.08609 35041 ft 507 kts 34°
2026-05-01 13:44 26.95820 -55.03710 35049 ft 507 kts 34°
2026-05-01 13:44 27.01310 -54.98828 35040 ft 507 kts 35°
2026-05-01 13:45 27.06747 -54.93774 35042 ft 508 kts 36°
2026-05-01 13:45 27.12142 -54.88662 35039 ft 508 kts 36°
2026-05-01 13:46 27.17547 -54.83552 35043 ft 508 kts 36°
2026-05-01 13:46 27.22956 -54.78456 35036 ft 508 kts 36°
2026-05-01 13:47 27.28371 -54.73358 35038 ft 507 kts 36°
2026-05-01 13:47 27.33783 -54.68256 35045 ft 507 kts 36°
2026-05-01 13:48 27.39189 -54.63152 35032 ft 508 kts 36°
2026-05-01 13:48 27.44564 -54.58070 35033 ft 508 kts 36°
2026-05-01 13:49 27.49971 -54.52950 35028 ft 508 kts 36°
2026-05-01 13:49 27.55382 -54.47819 35030 ft 508 kts 36°
2026-05-01 13:50 27.60792 -54.42684 35027 ft 508 kts 36°
2026-05-01 13:50 27.66200 -54.37542 35045 ft 508 kts 36°
2026-05-01 13:51 27.71611 -54.32391 35049 ft 509 kts 36°
2026-05-01 13:51 27.77024 -54.27232 35034 ft 510 kts 36°
2026-05-01 13:52 27.82443 -54.22060 35033 ft 510 kts 36°
2026-05-01 13:52 27.87859 -54.16883 35029 ft 510 kts 36°
2026-05-01 13:53 27.93240 -54.11733 35035 ft 510 kts 36°
2026-05-01 13:53 28.01374 -54.03936 35022 ft 511 kts 36°
2026-05-01 13:54 28.06798 -53.98726 35020 ft 511 kts 36°
2026-05-01 13:54 28.12223 -53.93509 35019 ft 511 kts 36°
2026-05-01 13:55 28.17639 -53.88294 35020 ft 511 kts 36°
2026-05-01 13:55 28.23058 -53.83068 35019 ft 511 kts 36°
2026-05-01 13:56 28.28468 -53.77843 35028 ft 511 kts 36°
2026-05-01 13:56 28.33885 -53.72606 35022 ft 511 kts 36°
2026-05-01 13:57 28.38386 -53.68247 35020 ft 511 kts 36°
2026-05-01 13:57 28.44702 -53.62124 35015 ft 511 kts 36°
2026-05-01 13:58 28.49193 -53.57763 35017 ft 511 kts 36°
2026-05-01 13:58 28.54597 -53.52510 35014 ft 511 kts 36°
2026-05-01 13:59 28.60004 -53.47246 35014 ft 512 kts 36°
2026-05-01 13:59 28.65419 -53.41967 35020 ft 512 kts 36°
2026-05-01 14:00 28.70836 -53.36680 35011 ft 513 kts 36°
2026-05-01 14:00 28.76258 -53.31379 35012 ft 514 kts 36°
2026-05-01 14:01 28.81692 -53.26058 35010 ft 514 kts 36°
2026-05-01 14:01 28.87123 -53.20733 35009 ft 515 kts 36°
2026-05-01 14:02 28.92560 -53.15395 35008 ft 516 kts 36°
2026-05-01 14:02 28.97999 -53.10046 35006 ft 516 kts 36°
2026-05-01 14:03 29.03442 -53.04687 35005 ft 517 kts 36°
2026-05-01 14:03 29.08853 -52.99351 35004 ft 517 kts 36°
2026-05-01 14:04 29.14298 -52.93974 34999 ft 517 kts 36°
2026-05-01 14:04 29.19741 -52.88591 35011 ft 517 kts 36°
2026-05-01 14:05 29.25190 -52.83195 35001 ft 518 kts 36°
2026-05-01 14:05 29.30635 -52.77794 34994 ft 518 kts 36°
2026-05-01 14:06 29.36084 -52.72380 35011 ft 518 kts 36°
2026-05-01 14:06 29.41538 -52.66956 34997 ft 519 kts 36°
2026-05-01 14:07 29.46956 -52.61558 34993 ft 519 kts 36°
2026-05-01 14:08 29.55135 -52.53395 34998 ft 520 kts 36°
2026-05-01 14:08 29.60594 -52.47936 35000 ft 520 kts 36°
2026-05-01 14:09 29.66046 -52.42475 34994 ft 520 kts 36°
2026-05-01 14:09 29.71504 -52.37002 34987 ft 520 kts 36°
2026-05-01 14:10 29.76958 -52.31523 35000 ft 520 kts 36°
2026-05-01 14:10 29.82408 -52.26041 35007 ft 520 kts 36°
2026-05-01 14:11 29.87863 -52.20545 34982 ft 520 kts 36°
2026-05-01 14:11 29.95993 -52.12339 34986 ft 520 kts 36°
2026-05-01 14:12 30.01441 -52.06829 34986 ft 520 kts 36°
2026-05-01 14:12 30.06884 -52.01316 34990 ft 520 kts 36°
2026-05-01 14:13 30.11441 -51.96695 34979 ft 520 kts 36°
2026-05-01 14:13 30.17755 -51.90281 34981 ft 520 kts 36°
2026-05-01 14:14 30.23193 -51.84748 34986 ft 520 kts 36°
2026-05-01 14:14 30.28625 -51.79213 34986 ft 520 kts 36°
2026-05-01 14:15 30.34055 -51.73671 34979 ft 520 kts 36°
2026-05-01 14:15 30.39479 -51.68127 34988 ft 520 kts 36°
2026-05-01 14:16 30.44913 -51.62564 34979 ft 521 kts 36°
2026-05-01 14:16 30.50342 -51.56998 34978 ft 521 kts 36°
2026-05-01 14:17 30.55772 -51.51421 34983 ft 521 kts 36°
2026-05-01 14:17 30.61164 -51.45875 34972 ft 522 kts 36°
2026-05-01 14:18 30.66594 -51.40281 34977 ft 522 kts 36°
2026-05-01 14:18 30.71144 -51.35587 34988 ft 522 kts 36°
2026-05-01 14:19 30.77460 -51.29061 34968 ft 523 kts 36°
2026-05-01 14:19 30.82898 -51.23433 34967 ft 523 kts 36°
2026-05-01 14:20 30.91041 -51.14988 34972 ft 523 kts 36°
2026-05-01 14:21 30.96473 -51.09345 34963 ft 523 kts 36°
2026-05-01 14:21 31.01901 -51.03695 34979 ft 523 kts 36°
2026-05-01 14:22 31.10047 -50.95201 34960 ft 524 kts 36°
2026-05-01 14:22 31.15473 -50.89532 34949 ft 524 kts 36°
2026-05-01 14:23 31.20867 -50.83886 34957 ft 524 kts 36°
2026-05-01 14:23 31.26335 -50.78154 34956 ft 525 kts 36°
2026-05-01 14:24 31.31729 -50.72490 34955 ft 525 kts 36°
2026-05-01 14:24 31.37161 -50.66778 34962 ft 526 kts 36°
2026-05-01 14:25 31.42606 -50.61042 34959 ft 526 kts 36°
2026-05-01 14:25 31.48045 -50.55304 34948 ft 526 kts 36°
2026-05-01 14:26 31.56206 -50.46675 34947 ft 526 kts 36°
2026-05-01 14:27 31.61638 -50.40920 34950 ft 526 kts 36°
2026-05-01 14:27 31.67063 -50.35162 34958 ft 526 kts 36°
2026-05-01 14:28 31.75190 -50.26521 34943 ft 525 kts 36°
2026-05-01 14:28 31.80597 -50.20759 34960 ft 525 kts 36°
2026-05-01 14:29 31.85999 -50.14992 34945 ft 524 kts 36°
2026-05-01 14:30 31.96729 -50.03510 34956 ft 522 kts 36°
2026-05-01 14:31 32.04531 -49.94516 34943 ft 525 kts 40°
2026-05-01 14:31 32.09520 -49.88242 34951 ft 524 kts 40°
2026-05-01 14:32 32.14500 -49.81967 34935 ft 523 kts 40°
2026-05-01 14:32 32.19488 -49.75715 34930 ft 523 kts 40°
2026-05-01 14:33 32.24486 -49.69463 34957 ft 522 kts 40°
2026-05-01 14:33 32.29474 -49.63216 34939 ft 522 kts 40°
2026-05-01 14:34 32.34455 -49.56964 34928 ft 522 kts 40°
2026-05-01 14:34 32.39430 -49.50707 34940 ft 522 kts 40°
2026-05-01 14:35 32.44395 -49.44450 34927 ft 521 kts 40°
2026-05-01 14:35 32.49359 -49.38185 34930 ft 521 kts 40°
2026-05-01 14:36 32.54310 -49.31926 34926 ft 521 kts 40°
2026-05-01 14:36 32.59231 -49.25695 34925 ft 521 kts 41°
2026-05-01 14:37 32.64183 -49.19411 34924 ft 521 kts 41°
2026-05-01 14:37 32.69130 -49.13124 34928 ft 521 kts 41°
2026-05-01 14:38 32.74072 -49.06832 34925 ft 522 kts 41°
2026-05-01 14:38 32.79029 -49.00511 34936 ft 523 kts 41°
2026-05-01 14:39 32.83988 -48.94176 34928 ft 524 kts 41°
2026-05-01 14:39 32.88929 -48.87853 34928 ft 526 kts 41°
2026-05-01 14:40 32.93905 -48.81473 34928 ft 527 kts 41°
2026-05-01 14:40 32.98895 -48.75063 34922 ft 527 kts 41°
2026-05-01 14:41 33.03880 -48.68649 34922 ft 528 kts 41°
2026-05-01 14:41 33.08868 -48.62219 34919 ft 529 kts 41°
2026-05-01 14:42 33.13872 -48.55758 34922 ft 530 kts 41°
2026-05-01 14:42 33.18868 -48.49294 34946 ft 530 kts 41°
2026-05-01 14:43 33.23873 -48.42808 34927 ft 531 kts 41°
2026-05-01 14:43 33.28886 -48.36299 34921 ft 532 kts 41°
2026-05-01 14:44 33.33898 -48.29778 34937 ft 532 kts 41°
2026-05-01 14:44 33.41406 -48.19990 34906 ft 532 kts 41°
2026-05-01 14:45 33.48907 -48.10184 34913 ft 532 kts 41°
2026-05-01 14:46 33.53904 -48.03636 34913 ft 532 kts 41°
2026-05-01 14:46 33.61385 -47.93810 34923 ft 532 kts 41°
2026-05-01 14:47 33.66368 -47.87250 34911 ft 532 kts 41°
2026-05-01 14:48 33.72992 -47.78511 34921 ft 531 kts 41°
2026-05-01 14:48 33.81240 -47.67598 34910 ft 530 kts 41°
2026-05-01 14:49 33.90289 -47.55589 34917 ft 528 kts 41°
2026-05-01 14:50 34.00140 -47.42468 34917 ft 528 kts 41°
2026-05-01 14:51 34.07512 -47.32616 34943 ft 528 kts 41°
2026-05-01 14:52 34.14885 -47.22736 34917 ft 527 kts 41°
2026-05-01 14:53 34.22237 -47.12855 34916 ft 527 kts 41°
2026-05-01 14:53 34.27134 -47.06260 34921 ft 527 kts 41°
2026-05-01 14:54 34.32024 -46.99661 34939 ft 527 kts 41°
2026-05-01 14:54 34.36911 -46.93052 34917 ft 527 kts 41°
2026-05-01 14:55 34.41757 -46.86487 34920 ft 526 kts 41°
2026-05-01 14:55 34.46626 -46.79878 34912 ft 525 kts 41°
2026-05-01 14:56 34.51485 -46.73270 34915 ft 524 kts 41°
2026-05-01 14:56 34.56330 -46.66669 34941 ft 523 kts 41°
2026-05-01 14:57 34.61166 -46.60068 34915 ft 523 kts 41°
2026-05-01 14:57 34.68399 -46.50172 34931 ft 522 kts 41°
2026-05-01 14:58 34.73215 -46.43567 34924 ft 521 kts 41°
2026-05-01 14:58 34.77989 -46.37008 34915 ft 521 kts 41°
2026-05-01 14:59 34.82791 -46.30397 34928 ft 521 kts 41°
2026-05-01 14:59 34.87580 -46.23792 34920 ft 520 kts 41°
2026-05-01 15:00 34.94754 -46.13875 34928 ft 520 kts 42°
2026-05-01 15:01 34.99530 -46.07254 34921 ft 520 kts 42°
2026-05-01 15:01 35.04305 -46.00625 34911 ft 520 kts 43°
2026-05-01 15:02 35.09078 -45.93987 34919 ft 520 kts 43°
2026-05-01 15:02 35.13840 -45.87346 34932 ft 520 kts 44°
2026-05-01 15:03 35.18575 -45.80731 34918 ft 521 kts 44°
2026-05-01 15:03 35.23346 -45.74057 34920 ft 521 kts 44°
2026-05-01 15:04 35.28111 -45.67375 34923 ft 522 kts 44°
2026-05-01 15:04 35.32878 -45.60678 34917 ft 522 kts 44°
2026-05-01 15:05 35.37648 -45.53964 34925 ft 522 kts 45°
2026-05-01 15:05 35.42414 -45.47242 34921 ft 522 kts 45°
2026-05-01 15:06 35.47181 -45.40506 34926 ft 522 kts 45°
2026-05-01 15:06 35.51941 -45.33766 34918 ft 522 kts 45°
2026-05-01 15:07 35.56667 -45.27061 34911 ft 522 kts 45°
2026-05-01 15:07 35.61418 -45.20308 34914 ft 522 kts 45°
2026-05-01 15:08 35.66159 -45.13554 34914 ft 521 kts 45°
2026-05-01 15:08 35.70892 -45.06799 34922 ft 521 kts 46°
2026-05-01 15:09 35.75616 -45.00044 34911 ft 520 kts 46°
2026-05-01 15:09 35.80336 -44.93282 34920 ft 520 kts 46°
2026-05-01 15:10 35.85046 -44.86520 34917 ft 520 kts 46°
2026-05-01 15:10 35.92094 -44.76375 34917 ft 519 kts 46°
2026-05-01 15:11 35.99135 -44.66212 34914 ft 519 kts 47°
2026-05-01 15:12 36.03821 -44.59431 34922 ft 519 kts 47°
2026-05-01 15:12 36.10859 -44.49222 34923 ft 520 kts 47°
2026-05-01 15:14 36.22551 -44.32190 34926 ft 521 kts 47°
2026-05-01 15:14 36.29585 -44.21899 34926 ft 521 kts 48°
2026-05-01 15:15 36.38939 -44.08177 34925 ft 520 kts 48°
2026-05-01 15:16 36.48269 -43.94416 34924 ft 521 kts 48°
2026-05-01 15:18 36.59907 -43.77184 34938 ft 523 kts 48°
2026-05-01 15:19 36.69242 -43.63302 34937 ft 522 kts 48°
2026-05-01 15:19 36.76211 -43.52897 34946 ft 521 kts 49°
2026-05-01 15:20 36.83175 -43.42470 34932 ft 522 kts 49°
2026-05-01 15:21 36.87811 -43.35506 34936 ft 521 kts 49°
2026-05-01 15:21 36.92431 -43.28554 34950 ft 520 kts 49°
2026-05-01 15:22 36.99350 -43.18113 34958 ft 520 kts 49°
2026-05-01 15:22 37.03978 -43.11113 34951 ft 524 kts 49°
2026-05-01 15:23 37.08589 -43.04126 34949 ft 524 kts 49°
2026-05-01 15:23 37.13227 -42.97080 34954 ft 524 kts 49°
2026-05-01 15:24 37.17839 -42.90055 34951 ft 520 kts 49°
2026-05-01 15:24 37.22424 -42.83063 34965 ft 519 kts 49°
2026-05-01 15:25 37.27006 -42.76060 34964 ft 519 kts 50°
2026-05-01 15:25 37.31593 -42.69036 34970 ft 520 kts 50°
2026-05-01 15:26 37.36184 -42.61987 34964 ft 522 kts 50°
2026-05-01 15:26 37.40793 -42.54893 34970 ft 523 kts 49°
2026-05-01 15:27 37.45392 -42.47803 34963 ft 521 kts 49°
2026-05-01 15:28 37.52229 -42.37237 34974 ft 518 kts 50°
2026-05-01 15:28 37.56770 -42.30195 34974 ft 518 kts 50°
2026-05-01 15:29 37.63597 -42.19585 34981 ft 520 kts 50°
2026-05-01 15:30 37.71913 -42.06615 34975 ft 518 kts 50°
2026-05-01 15:31 37.86224 -41.84171 34990 ft 521 kts 50°
2026-05-01 15:32 37.95329 -41.69813 34986 ft 523 kts 51°
2026-05-01 15:34 38.08845 -41.48378 35000 ft 518 kts 51°